NOAA 16 DEB, 41511

Orbit data source: Space-Track

NOAA 16 DEB, 41511 is space debris in SSO originally from a launch on Thu, 21 Sep 2000 UTC launched from the Air Force Western Test Range (AFWTR). Debris objects in space refer to the collection of defunct objects orbiting the Earth. Examples of debris include non-operational satellites, rocket bodies, and fragments generated from explosions, collisions, or faulty payload assembly.

Loading next visibility...
Identifier
41511, 2000-055MK
Orbit
SSO
Country
Flag of USUS
Related business
Manufacturer
Unknown
Mission
Spacecraft
Bus & Motor
Unknown
Mass
Unknown
Launch date (UTC)
2000-09-21 (25 years ago)
Launch vehicle
Unknown
Launch site
Air Force Western Test Range (AFWTR)
Object type
Payload
Rocket body
Debris
Shape & HBR
Unknown shape, 0.1 m
Radar Cross Section
Small (<0.1 m²)

Expand to show TLE details & history
Last TLE update: 3 days ago

TLE from 3 days ago
0 NOAA 16 DEB
1 41511U 00055MK  25289.10670818  .00004346  00000-0  20090-2 0  9999
2 41511  98.7023 343.8729 0026132 101.7219 258.6892 14.21204845493236
Epoch: 2025-10-16T02:33Z
TLE epoch observation values (Epoch: 2025-10-16T02:33:39.586Z)
Latitude
-0.00007°
Longitude
-79.41322°
Altitude
827.935 km
Speed
7.437 km/s
True Right ascension
22h 55m 29s
True Declination
0° 00' 00"
Sunlit
Object was in full shadow at epoch
Visualization orbit readout
Latitude
Unknown
Longitude
Unknown
Altitude
Unknown
Speed
Unknown
Apparent Right ascension
Unknown
Apparent Declination
Unknown
Sunlit
N/A
Visualization observer readout
Local Sidereal Time
14:59:58
Azimuth
Unknown
Elevation
Unknown
Doppler factor
Unknown
Orbital elements
Apogee altitude
837.244 km
Perigee altitude
799.631 km
Semi-major axis
7,196.575 km
Eccentricity
0.00261
Inclination
98.7023°
RAAN
343.8729°
Arg. of periapsis
101.7219°
True anomaly
258.39575°
Mean anomaly
258.6892°
Eccentric anomaly
258.54246°
Mean motion
3.55512 °/min
Orbital period
101.26 mins
BSTAR
0.002009
Loading maneuver chart data...
Computing Atmospheric mass density...

Documentation

Showing up to 5 results
|